Date,TemperatureHighF,TemperatureAvgF,TemperatureLowF,DewpointHighF,DewpointAvgF,DewpointLowF,HumidityHigh,HumidityAvg,HumidityLow,PressureMaxIn,PressureMinIn,WindSpeedMaxMPH,WindSpeedAvgMPH,GustSpeedMaxMPH,PrecipitationSumIn
2013-1-1,28,20,8,-100,-100,-100,0,0,100,0.00,40.00,0,-999,0,0.00
2013-1-2,17,9,1,-100,-100,-100,0,0,100,0.00,40.00,0,-999,0,0.00
2013-1-3,19,4,-14,-100,-100,-100,0,0,100,0.00,40.00,0,-999,0,0.00
2013-1-4,29,25,17,-100,-100,-100,0,0,100,0.00,40.00,0,-999,0,0.00
2013-1-5,31,25,14,-100,-100,-100,0,0,100,0.00,40.00,0,-999,0,0.00
2013-1-6,31,24,13,-100,-100,-100,0,0,100,0.00,40.00,0,-999,0,0.00
2013-1-7,31,22,5,-100,-100,-100,0,0,100,0.00,40.00,0,-999,0,0.00
2013-1-8,36,19,3,-100,-100,-100,0,0,100,0.00,40.00,0,-999,0,0.06
2013-1-9,40,26,9,-100,-100,-100,0,0,100,0.00,40.00,0,-999,0,0.06
2013-1-10,36,32,23,-100,-100,-100,0,0,100,0.00,40.00,0,-999,0,0.02
2013-1-11,33,26,17,-100,-100,-100,0,0,100,0.00,40.00,0,-999,0,0.01
2013-1-12,44,35,31,-100,-100,-100,0,0,100,0.00,40.00,0,-999,0,0.54
2013-1-13,53,39,33,-100,-100,-100,0,0,100,0.00,40.00,0,-999,0,0.01
2013-1-14,47,36,29,-100,-100,-100,0,0,100,0.00,40.00,0,-999,0,0.06
2013-1-15,29,26,22,-100,-100,-100,0,0,100,0.00,40.00,0,-999,0,0.03
2013-1-16,30,26,24,-100,-100,-100,0,0,100,0.00,40.00,0,-999,0,0.00
2013-1-17,31,25,16,-100,-100,-100,0,0,100,0.00,40.00,0,-999,0,0.00
2013-1-18,16,10,4,-100,-100,-100,0,0,100,0.00,40.00,0,-999,0,0.00
2013-1-19,40,28,15,-100,-100,-100,0,0,100,0.00,40.00,0,-999,0,0.07
2013-1-20,42,30,16,-100,-100,-100,0,0,100,0.00,40.00,0,-999,0,0.01
2013-1-21,18,14,11,-100,-100,-100,0,0,100,0.00,40.00,0,-999,0,0.00
2013-1-22,15,8,-1,-100,-100,-100,0,0,100,0.00,40.00,0,-999,0,0.00
2013-1-23,3,-1,-6,-100,-100,-100,0,0,100,0.00,40.00,0,-999,0,0.00
2013-1-24,8,1,-6,-100,-100,-100,0,0,100,0.00,40.00,0,-999,0,0.00
2013-1-25,14,6,-2,-100,-100,-100,0,0,100,0.00,40.00,0,-999,0,0.00
2013-1-26,13,6,-7,-100,-100,-100,0,0,100,0.00,40.00,0,-999,0,0.00
2013-1-27,20,11,4,-100,-100,-100,0,0,100,0.00,40.00,0,-999,0,0.00
2013-1-28,20,13,3,-100,-100,-100,0,0,100,0.00,40.00,0,-999,0,0.00
2013-1-29,32,27,20,-100,-100,-100,0,0,100,0.00,40.00,0,-999,0,0.02
2013-1-30,53,42,32,-100,-100,-100,0,0,100,0.00,40.00,0,-999,0,0.83
2013-1-31,41,28,20,-100,-100,-100,0,0,100,0.00,40.00,0,-999,0,0.61
2013-2-1,20,17,13,-100,-100,-100,0,0,100,0.00,40.00,0,-999,0,0.01
2013-2-2,20,14,5,-100,-100,-100,0,0,100,0.00,40.00,0,-999,0,0.00
2013-2-3,24,15,6,-100,-100,-100,0,0,100,0.00,40.00,0,-999,0,0.00
2013-2-4,18,14,11,-100,-100,-100,0,0,100,0.00,40.00,0,-999,0,0.00
2013-2-5,24,15,4,-100,-100,-100,0,0,100,0.00,40.00,0,-999,0,0.00
2013-2-6,27,20,13,-100,-100,-100,0,0,100,0.00,40.00,0,-999,0,0.00
2013-2-7,24,16,3,-100,-100,-100,0,0,100,0.00,40.00,0,-999,0,0.00
2013-2-8,22,18,15,-100,-100,-100,0,0,100,0.00,40.00,0,-999,0,0.00
2013-2-9,16,13,8,-100,-100,-100,0,0,100,0.00,40.00,0,-999,0,0.00
2013-2-10,38,14,-4,-100,-100,-100,0,0,100,0.00,40.00,0,-999,0,0.05
2013-2-11,38,27,10,-100,-100,-100,0,0,100,0.00,40.00,0,-999,0,0.21
2013-2-12,31,29,26,-100,-100,-100,0,0,100,0.00,40.00,0,-999,0,0.10
2013-2-13,29,25,20,-100,-100,-100,0,0,100,0.00,40.00,0,-999,0,0.00
2013-2-14,35,23,9,-100,-100,-100,0,0,100,0.00,40.00,0,-999,0,0.05
2013-2-15,42,31,18,-100,-100,-100,0,0,100,0.00,40.00,0,-999,0,0.20
2013-2-16,30,24,19,-100,-100,-100,0,0,100,0.00,40.00,0,-999,0,0.01
2013-2-17,18,12,5,-100,-100,-100,0,0,100,0.00,40.00,0,-999,0,0.00
2013-2-18,19,10,1,-100,-100,-100,0,0,100,0.00,40.00,0,-999,0,0.00
2013-2-19,34,22,6,-100,-100,-100,0,0,100,0.00,40.00,0,-999,0,0.00
2013-2-20,21,19,16,-100,-100,-100,0,0,100,0.00,40.00,0,-999,0,0.00
2013-2-21,20,17,13,-100,-100,-100,0,0,100,0.00,40.00,0,-999,0,0.00
2013-2-22,35,25,10,-100,-100,-100,0,0,100,0.00,40.00,0,-999,0,0.00
2013-2-23,29,28,25,-100,-100,-100,0,0,100,0.00,40.00,0,-999,0,0.00
2013-2-24,34,30,28,-100,-100,-100,0,0,100,0.00,40.00,0,-999,0,0.00
2013-2-25,32,28,18,-100,-100,-100,0,0,100,0.00,40.00,0,-999,0,0.00
2013-2-26,33,28,17,-100,-100,-100,0,0,100,0.00,40.00,0,-999,0,0.04
2013-2-27,32,30,28,-100,-100,-100,0,0,100,0.00,40.00,0,-999,0,0.01
2013-2-28,35,31,28,-100,-100,-100,0,0,100,0.00,40.00,0,-999,0,0.20
2013-3-1,35,31,27,-100,-100,-100,0,0,100,0.00,40.00,0,-999,0,0.76
2013-3-2,31,27,23,-100,-100,-100,0,0,100,0.00,40.00,0,-999,0,0.31
2013-3-3,27,23,20,-100,-100,-100,0,0,100,0.00,40.00,0,-999,0,0.00
2013-3-4,28,22,18,-100,-100,-100,0,0,100,0.00,40.00,0,-999,0,0.00
2013-3-5,35,27,22,-100,-100,-100,0,0,100,0.00,40.00,0,-999,0,0.01
2013-3-6,31,30,27,-100,-100,-100,0,0,100,0.00,40.00,0,-999,0,0.05
2013-3-7,30,28,25,-100,-100,-100,0,0,100,0.00,40.00,0,-999,0,0.01
2013-3-8,38,30,25,-100,-100,-100,0,0,100,0.00,40.00,0,-999,0,0.07
2013-3-9,49,30,11,-100,-100,-100,0,0,100,0.00,40.00,0,-999,0,0.01
2013-3-10,51,32,14,-100,-100,-100,0,0,100,0.00,40.00,0,-999,0,0.00
2013-3-11,46,38,30,-100,-100,-100,0,0,100,0.00,40.00,0,-999,0,0.00
2013-3-12,45,42,34,-100,-100,-100,0,0,100,0.00,40.00,0,-999,0,0.86
2013-3-13,37,33,29,-100,-100,-100,0,0,100,0.00,40.00,0,-999,0,0.36
2013-3-14,28,20,16,-100,-100,-100,0,0,100,0.00,40.00,0,-999,0,0.00
2013-3-15,29,22,14,-100,-100,-100,0,0,100,0.00,40.00,0,-999,0,0.00
2013-3-16,29,23,17,-100,-100,-100,0,0,100,0.00,40.00,0,-999,0,0.01
2013-3-17,26,21,15,-100,-100,-100,0,0,100,0.00,40.00,0,-999,0,0.00
2013-3-18,31,20,-1,-100,-100,-100,0,0,100,0.00,40.00,0,-999,0,0.02
2013-3-19,29,25,22,-100,-100,-100,0,0,100,0.00,40.00,0,-999,0,0.38
2013-3-20,25,21,18,-100,-100,-100,0,0,100,0.00,40.00,0,-999,0,0.09
2013-3-21,30,21,7,-100,-100,-100,0,0,100,0.00,40.00,0,-999,0,0.01
2013-3-22,27,19,5,-100,-100,-100,0,0,100,0.00,40.00,0,-999,0,0.01
2013-3-23,32,27,22,-100,-100,-100,0,0,100,0.00,40.00,0,-999,0,0.01
2013-3-24,35,29,25,-100,-100,-100,0,0,100,0.00,40.00,0,-999,0,0.00
2013-3-25,35,29,19,-100,-100,-100,0,0,100,0.00,40.00,0,-999,0,0.00
2013-3-26,37,30,23,-100,-100,-100,0,0,100,0.00,40.00,0,-999,0,0.00
2013-3-27,41,28,13,-100,-100,-100,0,0,100,0.00,40.00,0,-999,0,0.00
2013-3-28,41,35,31,-100,-100,-100,0,0,100,0.00,40.00,0,-999,0,0.00
2013-3-29,42,35,29,-100,-100,-100,0,0,100,0.00,40.00,0,-999,0,0.00
2013-3-30,46,35,24,-100,-100,-100,0,0,100,0.00,40.00,0,-999,0,0.00
2013-3-31,49,35,20,-100,-100,-100,0,0,100,0.00,40.00,0,-999,0,0.16
2013-4-1,47,34,25,-100,-100,-100,0,0,100,0.00,40.00,0,-999,0,0.43
2013-4-2,27,24,20,-100,-100,-100,0,0,100,0.00,40.00,0,-999,0,0.01
2013-4-3,34,26,19,-100,-100,-100,0,0,100,0.00,40.00,0,-999,0,0.01
2013-4-4,45,33,21,-100,-100,-100,0,0,100,0.00,40.00,0,-999,0,0.00
2013-4-5,46,36,26,-100,-100,-100,0,0,100,0.00,40.00,0,-999,0,0.00
2013-4-6,37,28,21,-100,-100,-100,0,0,100,0.00,40.00,0,-999,0,0.00
2013-4-7,50,35,22,-100,-100,-100,0,0,100,0.00,40.00,0,-999,0,0.03
2013-4-8,59,42,32,-100,-100,-100,0,0,100,0.00,40.00,0,-999,0,0.01
2013-4-9,52,43,36,-100,-100,-100,0,0,100,0.00,40.00,0,-999,0,0.17
2013-4-10,55,44,36,-100,-100,-100,0,0,100,0.00,40.00,0,-999,0,0.80
2013-4-11,40,36,31,-100,-100,-100,0,0,100,0.00,40.00,0,-999,0,0.58
2013-4-12,31,31,30,-100,-100,-100,0,0,100,0.00,40.00,0,-999,0,0.64
2013-4-13,43,38,33,-100,-100,-100,0,0,100,0.00,40.00,0,-999,0,0.05
2013-4-14,38,34,30,-100,-100,-100,0,0,100,0.00,40.00,0,-999,0,0.06
2013-4-15,54,38,25,-100,-100,-100,0,0,100,0.00,40.00,0,-999,0,0.03
2013-4-16,57,47,34,-100,-100,-100,0,0,100,0.00,40.00,0,-999,0,0.18
2013-4-17,53,45,34,-100,-100,-100,0,0,100,0.00,40.00,0,-999,0,0.19
2013-4-18,55,43,28,-100,-100,-100,0,0,100,0.00,40.00,0,-999,0,0.00
2013-4-19,65,56,44,-100,-100,-100,0,0,100,0.00,40.00,0,-999,0,0.35
2013-4-20,46,39,31,-100,-100,-100,0,0,100,0.00,40.00,0,-999,0,0.60
2013-4-21,42,32,25,-100,-100,-100,0,0,100,0.00,40.00,0,-999,0,0.01
2013-4-22,50,36,23,-100,-100,-100,0,0,100,0.00,40.00,0,-999,0,0.00
2013-4-23,40,34,30,-100,-100,-100,0,0,100,0.00,40.00,0,-999,0,0.00
2013-4-24,70,53,36,-100,-100,-100,0,0,100,0.00,40.00,0,-999,0,0.00
2013-4-25,56,42,32,-100,-100,-100,0,0,100,0.00,40.00,0,-999,0,0.09
2013-4-26,53,40,27,-100,-100,-100,0,0,100,0.00,40.00,0,-999,0,0.00
2013-4-27,59,44,28,-100,-100,-100,0,0,100,0.00,40.00,0,-999,0,0.00
2013-4-28,66,50,30,-100,-100,-100,0,0,100,0.00,40.00,0,-999,0,0.00
2013-4-29,60,50,41,-100,-100,-100,0,0,100,0.00,40.00,0,-999,0,0.00
2013-4-30,67,54,44,-100,-100,-100,0,0,100,0.00,40.00,0,-999,0,0.00
2013-5-1,69,52,33,-100,-100,-100,0,0,100,0.00,40.00,0,-999,0,0.00
2013-5-2,73,55,35,-100,-100,-100,0,0,100,0.00,40.00,0,-999,0,0.00
2013-5-3,62,51,39,-100,-100,-100,0,0,100,0.00,40.00,0,-999,0,0.00
2013-5-4,67,52,34,-100,-100,-100,0,0,100,0.00,40.00,0,-999,0,0.00
2013-5-5,68,51,31,-100,-100,-100,0,0,100,0.00,40.00,0,-999,0,0.00
2013-5-6,71,52,31,-100,-100,-100,0,0,100,0.00,40.00,0,-999,0,0.00
2013-5-7,75,58,36,-100,-100,-100,0,0,100,0.00,40.00,0,-999,0,0.00
2013-5-8,66,55,42,-100,-100,-100,0,0,100,0.00,40.00,0,-999,0,0.39
2013-5-9,63,56,48,-100,-100,-100,0,0,100,0.00,40.00,0,-999,0,0.34
2013-5-10,70,58,45,-100,-100,-100,0,0,100,0.00,40.00,0,-999,0,0.00
2013-5-11,61,58,53,-100,-100,-100,0,0,100,0.00,40.00,0,-999,0,0.30
2013-5-12,54,48,41,-100,-100,-100,0,0,100,0.00,40.00,0,-999,0,0.01
2013-5-13,41,37,34,-100,-100,-100,0,0,100,0.00,40.00,0,-999,0,0.00
2013-5-14,47,39,28,-100,-100,-100,0,0,100,0.00,40.00,0,-999,0,0.00
2013-5-15,54,41,26,-100,-100,-100,0,0,100,0.00,40.00,0,-999,0,0.05
2013-5-16,70,56,40,-100,-100,-100,0,0,100,0.00,40.00,0,-999,0,0.01
2013-5-17,59,50,43,-100,-100,-100,0,0,100,0.00,40.00,0,-999,0,0.00
2013-5-18,67,52,35,-100,-100,-100,0,0,100,0.00,40.00,0,-999,0,0.00
2013-5-19,56,49,39,-100,-100,-100,0,0,100,0.00,40.00,0,-999,0,0.10
2013-5-20,71,59,51,-100,-100,-100,0,0,100,0.00,40.00,0,-999,0,0.02
2013-5-21,80,65,52,-100,-100,-100,0,0,100,0.00,40.00,0,-999,0,0.72
2013-5-22,72,61,50,-100,-100,-100,0,0,100,0.00,40.00,0,-999,0,1.97
2013-5-23,71,64,57,-100,-100,-100,0,0,100,0.00,40.00,0,-999,0,0.06
2013-5-24,61,50,40,-100,-100,-100,0,0,100,0.00,40.00,0,-999,0,0.60
2013-5-25,41,39,36,-100,-100,-100,0,0,100,0.00,40.00,0,-999,0,0.40
2013-5-26,45,40,35,-100,-100,-100,0,0,100,0.00,40.00,0,-999,0,0.12
2013-5-27,62,51,35,-100,-100,-100,0,0,100,0.00,40.00,0,-999,0,0.01
2013-5-28,68,54,34,-100,-100,-100,0,0,100,0.00,40.00,0,-999,0,0.00
2013-5-29,72,61,53,-100,-100,-100,0,0,100,0.00,40.00,0,-999,0,1.04
2013-5-30,79,67,56,-100,-100,-100,0,0,100,0.00,40.00,0,-999,0,0.64
2013-5-31,87,70,54,-100,-100,-100,0,0,100,0.00,40.00,0,-999,0,0.00
2013-6-1,85,71,57,-100,-100,-100,0,0,100,0.00,40.00,0,-999,0,0.00
2013-6-2,84,70,62,-100,-100,-100,0,0,100,0.00,40.00,0,-999,0,0.00
2013-6-3,62,59,49,-100,-100,-100,0,0,100,0.00,40.00,0,-999,0,0.03
2013-6-4,64,52,42,-100,-100,-100,0,0,100,0.00,40.00,0,-999,0,0.01
2013-6-5,67,54,41,-100,-100,-100,0,0,100,0.00,40.00,0,-999,0,0.00
2013-6-6,65,55,43,-100,-100,-100,0,0,100,0.00,40.00,0,-999,0,0.11
2013-6-7,51,49,48,-100,-100,-100,0,0,100,0.00,40.00,0,-999,0,1.17
2013-6-8,59,55,48,-100,-100,-100,0,0,100,0.00,40.00,0,-999,0,0.65
2013-6-9,68,60,53,-100,-100,-100,0,0,100,0.00,40.00,0,-999,0,0.01
2013-6-10,64,55,46,-100,-100,-100,0,0,100,0.00,40.00,0,-999,0,0.56
2013-6-11,58,55,52,-100,-100,-100,0,0,100,0.00,40.00,0,-999,0,1.50
2013-6-12,62,54,48,-100,-100,-100,0,0,100,0.00,40.00,0,-999,0,0.47
2013-6-13,53,48,42,-100,-100,-100,0,0,100,0.00,40.00,0,-999,0,0.95
2013-6-14,67,56,47,-100,-100,-100,0,0,100,0.00,40.00,0,-999,0,0.24
2013-6-15,68,57,41,-100,-100,-100,0,0,100,0.00,40.00,0,-999,0,0.00
2013-6-16,66,56,45,-100,-100,-100,0,0,100,0.00,40.00,0,-999,0,0.08
2013-6-17,74,63,57,-100,-100,-100,0,0,100,0.00,40.00,0,-999,0,0.13
2013-6-18,65,57,50,-100,-100,-100,0,0,100,0.00,40.00,0,-999,0,0.04
2013-6-19,63,52,40,-100,-100,-100,0,0,100,0.00,40.00,0,-999,0,0.00
2013-6-20,70,53,37,-100,-100,-100,0,0,100,0.00,40.00,0,-999,0,0.00
2013-6-22,78,72,65,-100,-100,-100,0,0,100,0.00,40.00,0,-999,0,0.00
2013-6-23,84,71,60,-100,-100,-100,0,0,100,0.00,40.00,0,-999,0,0.00
2013-6-24,83,71,63,-100,-100,-100,0,0,100,0.00,40.00,0,-999,0,0.09
2013-6-25,81,69,59,-100,-100,-100,0,0,100,0.00,40.00,0,-999,0,0.42
2013-6-26,70,67,62,-100,-100,-100,0,0,100,0.00,40.00,0,-999,0,0.41
2013-6-27,77,67,57,-100,-100,-100,0,0,100,0.00,40.00,0,-999,0,0.05
2013-6-28,75,66,61,-100,-100,-100,0,0,100,0.00,40.00,0,-999,0,1.81
2013-6-29,76,67,60,-100,-100,-100,0,0,100,0.00,40.00,0,-999,0,0.41
2013-6-30,79,67,57,-100,-100,-100,0,0,100,0.00,40.00,0,-999,0,0.04
2013-7-1,72,66,61,-100,-100,-100,0,0,100,0.00,40.00,0,-999,0,0.14
2013-7-2,80,71,67,-100,-100,-100,0,0,100,0.00,40.00,0,-999,0,0.16
2013-7-3,79,72,67,-100,-100,-100,0,0,100,0.00,40.00,0,-999,0,0.19
2013-7-4,84,75,63,-100,-100,-100,0,0,100,0.00,40.00,0,-999,0,0.01
2013-7-5,84,74,68,-100,-100,-100,0,0,100,0.00,40.00,0,-999,0,0.27
2013-7-6,79,71,63,-100,-100,-100,0,0,100,0.00,40.00,0,-999,0,0.27
2013-7-7,84,70,61,-100,-100,-100,0,0,100,0.00,40.00,0,-999,0,0.01
2013-7-8,77,70,67,-100,-100,-100,0,0,100,0.00,40.00,0,-999,0,0.01
2013-7-9,76,70,65,-100,-100,-100,0,0,100,0.00,40.00,0,-999,0,0.19
2013-7-10,77,70,66,-100,-100,-100,0,0,100,0.00,40.00,0,-999,0,0.27
2013-7-11,75,68,60,-100,-100,-100,0,0,100,0.00,40.00,0,-999,0,0.08
2013-7-12,74,64,56,-100,-100,-100,0,0,100,0.00,40.00,0,-999,0,0.00
2013-7-13,69,64,58,-100,-100,-100,0,0,100,0.00,40.00,0,-999,0,0.02
2013-7-14,82,73,65,-100,-100,-100,0,0,100,0.00,40.00,0,-999,0,0.02
2013-7-15,84,71,61,-100,-100,-100,0,0,100,0.00,40.00,0,-999,0,0.03
2013-7-16,84,72,60,-100,-100,-100,0,0,100,0.00,40.00,0,-999,0,0.03
2013-7-17,86,73,60,-100,-100,-100,0,0,100,0.00,40.00,0,-999,0,0.00
2013-7-18,85,77,68,-100,-100,-100,0,0,100,0.00,40.00,0,-999,0,0.00
2013-7-19,86,76,66,-100,-100,-100,0,0,100,0.00,40.00,0,-999,0,0.00
2013-7-20,79,70,62,-100,-100,-100,0,0,100,0.00,40.00,0,-999,0,0.12
2013-7-21,77,66,56,-100,-100,-100,0,0,100,0.00,40.00,0,-999,0,0.00
2013-7-22,77,66,57,-100,-100,-100,0,0,100,0.00,40.00,0,-999,0,0.06
2013-7-23,73,67,63,-100,-100,-100,0,0,100,0.00,40.00,0,-999,0,1.64
2013-7-24,71,64,54,-100,-100,-100,0,0,100,0.00,40.00,0,-999,0,0.08
2013-7-25,67,57,43,-100,-100,-100,0,0,100,0.00,40.00,0,-999,0,0.00
2013-7-26,68,60,54,-100,-100,-100,0,0,100,0.00,40.00,0,-999,0,0.00
2013-7-27,77,63,46,-100,-100,-100,0,0,100,0.00,40.00,0,-999,0,0.00
2013-7-28,73,64,56,-100,-100,-100,0,0,100,0.00,40.00,0,-999,0,0.21
2013-7-29,75,65,56,-100,-100,-100,0,0,100,0.00,40.00,0,-999,0,0.20
2013-7-30,71,61,51,-100,-100,-100,0,0,100,0.00,40.00,0,-999,0,0.01
2013-7-31,74,63,49,-100,-100,-100,0,0,100,0.00,40.00,0,-999,0,0.00
2013-8-1,70,59,48,-100,-100,-100,0,0,100,0.00,40.00,0,-999,0,0.13
2013-8-2,72,65,57,-100,-100,-100,0,0,100,0.00,40.00,0,-999,0,0.01
2013-8-3,71,61,52,-100,-100,-100,0,0,100,0.00,40.00,0,-999,0,0.01
2013-8-4,70,59,49,-100,-100,-100,0,0,100,0.00,40.00,0,-999,0,0.09
2013-8-5,66,55,47,-100,-100,-100,0,0,100,0.00,40.00,0,-999,0,0.09
2013-8-6,71,56,40,-100,-100,-100,0,0,100,0.00,40.00,0,-999,0,0.00
2013-8-7,72,61,51,-100,-100,-100,0,0,100,0.00,40.00,0,-999,0,0.00
2013-8-8,77,68,62,-100,-100,-100,0,0,100,0.00,40.00,0,-999,0,0.04
2013-8-9,71,69,66,-100,-100,-100,0,0,100,0.00,40.00,0,-999,0,1.79
2013-8-10,71,64,52,-100,-100,-100,0,0,100,0.00,40.00,0,-999,0,0.01
2013-8-11,69,57,43,-100,-100,-100,0,0,100,0.00,40.00,0,-999,0,0.00
2013-8-12,72,61,50,-100,-100,-100,0,0,100,0.00,40.00,0,-999,0,0.00
2013-8-13,68,61,55,-100,-100,-100,0,0,100,0.00,40.00,0,-999,0,1.05
2013-8-14,61,55,50,-100,-100,-100,0,0,100,0.00,40.00,0,-999,0,0.10
2013-8-15,65,53,42,-100,-100,-100,0,0,100,0.00,40.00,0,-999,0,0.00
2013-8-16,70,56,44,-100,-100,-100,0,0,100,0.00,40.00,0,-999,0,0.00
2013-8-17,73,58,43,-100,-100,-100,0,0,100,0.00,40.00,0,-999,0,0.00
2013-8-18,71,59,47,-100,-100,-100,0,0,100,0.00,40.00,0,-999,0,0.00
2013-8-19,72,61,50,-100,-100,-100,0,0,100,0.00,40.00,0,-999,0,0.00
2013-8-20,76,63,49,-100,-100,-100,0,0,100,0.00,40.00,0,-999,0,0.00
2013-8-21,78,64,52,-100,-100,-100,0,0,100,0.00,40.00,0,-999,0,0.00
2013-8-22,80,66,53,-100,-100,-100,0,0,100,0.00,40.00,0,-999,0,0.13
2013-8-23,68,61,48,-100,-100,-100,0,0,100,0.00,40.00,0,-999,0,0.13
2013-8-24,73,57,42,-100,-100,-100,0,0,100,0.00,40.00,0,-999,0,0.00
2013-8-25,73,58,41,-100,-100,-100,0,0,100,0.00,40.00,0,-999,0,0.00
2013-8-26,70,64,57,-100,-100,-100,0,0,100,0.00,40.00,0,-999,0,0.17
2013-8-27,75,65,59,-100,-100,-100,0,0,100,0.00,40.00,0,-999,0,0.20
2013-8-28,79,72,65,-100,-100,-100,0,0,100,0.00,40.00,0,-999,0,0.20
2013-8-29,68,63,57,-100,-100,-100,0,0,100,0.00,40.00,0,-999,0,0.19
2013-8-30,77,67,61,-100,-100,-100,0,0,100,0.00,40.00,0,-999,0,0.00
2013-8-31,74,67,62,-100,-100,-100,0,0,100,0.00,40.00,0,-999,0,0.53
2013-9-1,75,68,63,-100,-100,-100,0,0,100,0.00,40.00,0,-999,0,1.07
2013-9-2,75,68,63,-100,-100,-100,0,0,100,0.00,40.00,0,-999,0,1.28
2013-9-3,66,63,59,-100,-100,-100,0,0,100,0.00,40.00,0,-999,0,0.05
2013-9-4,68,61,52,-100,-100,-100,0,0,100,0.00,40.00,0,-999,0,0.00
2013-9-5,61,55,43,-100,-100,-100,0,0,100,0.00,40.00,0,-999,0,0.01
2013-9-6,60,47,34,-100,-100,-100,0,0,100,0.00,40.00,0,-999,0,0.01
2013-9-7,68,55,43,-100,-100,-100,0,0,100,0.00,40.00,0,-999,0,0.00
2013-9-8,61,55,41,-100,-100,-100,0,0,100,0.00,40.00,0,-999,0,0.00
2013-9-9,63,49,33,-100,-100,-100,0,0,100,0.00,40.00,0,-999,0,0.00
2013-9-10,75,61,49,-100,-100,-100,0,0,100,0.00,40.00,0,-999,0,0.25
2013-9-11,88,74,63,-100,-100,-100,0,0,100,0.00,40.00,0,-999,0,0.49
2013-9-12,75,66,62,-100,-100,-100,0,0,100,0.00,40.00,0,-999,0,1.03
2013-9-13,64,59,51,-100,-100,-100,0,0,100,0.00,40.00,0,-999,0,0.47
2013-9-14,55,51,48,-100,-100,-100,0,0,100,0.00,40.00,0,-999,0,0.01
2013-9-15,61,47,36,-100,-100,-100,0,0,100,0.00,40.00,0,-999,0,0.00
2013-9-16,58,50,40,-100,-100,-100,0,0,100,0.00,40.00,0,-999,0,0.02
2013-9-17,60,46,34,-100,-100,-100,0,0,100,0.00,40.00,0,-999,0,0.01
2013-9-18,44,35,32,-100,-100,-100,0,0,100,0.00,40.00,0,-999,0,0.00
2013-9-19,74,54,37,-100,-100,-100,0,0,100,0.00,40.00,0,-999,0,0.00
2013-9-20,74,55,38,-100,-100,-100,0,0,100,0.00,40.00,0,-999,0,0.00
2013-9-21,68,58,44,-100,-100,-100,0,0,100,0.00,40.00,0,-999,0,0.03
2013-9-22,61,53,45,-100,-100,-100,0,0,100,0.00,40.00,0,-999,0,0.68
2013-9-23,52,45,41,-100,-100,-100,0,0,100,0.00,40.00,0,-999,0,0.01
2013-9-24,59,47,40,-100,-100,-100,0,0,100,0.00,40.00,0,-999,0,0.00
2013-9-25,64,49,35,-100,-100,-100,0,0,100,0.00,40.00,0,-999,0,0.00
2013-9-26,59,50,43,-100,-100,-100,0,0,100,0.00,40.00,0,-999,0,0.00
2013-9-27,55,46,40,-100,-100,-100,0,0,100,0.00,40.00,0,-999,0,0.00
2013-9-28,68,51,35,-100,-100,-100,0,0,100,0.00,40.00,0,-999,0,0.00
2013-9-29,66,51,38,-100,-100,-100,0,0,100,0.00,40.00,0,-999,0,0.00
2013-9-30,69,54,35,-100,-100,-100,0,0,100,0.00,40.00,0,-999,0,0.00
2013-10-1,56,53,50,-100,-100,-100,0,0,100,0.00,40.00,0,-999,0,0.00
2013-10-2,66,60,49,-100,-100,-100,0,0,100,0.00,40.00,0,-999,0,0.00
2013-10-3,67,55,41,-100,-100,-100,0,0,100,0.00,40.00,0,-999,0,0.00
2013-10-4,57,52,48,-100,-100,-100,0,0,100,0.00,40.00,0,-999,0,0.66
2013-10-5,58,56,53,-100,-100,-100,0,0,100,0.00,40.00,0,-999,0,0.04
2013-10-6,55,52,49,-100,-100,-100,0,0,100,0.00,40.00,0,-999,0,0.84
2013-10-7,66,55,49,-100,-100,-100,0,0,100,0.00,40.00,0,-999,0,0.46
2013-10-8,57,48,36,-100,-100,-100,0,0,100,0.00,40.00,0,-999,0,0.12
2013-10-9,60,42,30,-100,-100,-100,0,0,100,0.00,40.00,0,-999,0,0.00
2013-10-10,59,44,32,-100,-100,-100,0,0,100,0.00,40.00,0,-999,0,0.00
2013-10-11,68,51,41,-100,-100,-100,0,0,100,0.00,40.00,0,-999,0,0.00
2013-10-12,60,48,37,-100,-100,-100,0,0,100,0.00,40.00,0,-999,0,0.00
2013-10-13,60,51,43,-100,-100,-100,0,0,100,0.00,40.00,0,-999,0,0.00
2013-10-14,64,53,41,-100,-100,-100,0,0,100,0.00,40.00,0,-999,0,0.00
2013-10-15,59,56,51,-100,-100,-100,0,0,100,0.00,40.00,0,-999,0,0.00
2013-10-16,58,52,46,-100,-100,-100,0,0,100,0.00,40.00,0,-999,0,0.00
2013-10-17,61,54,50,-100,-100,-100,0,0,100,0.00,40.00,0,-999,0,0.05
2013-10-18,58,52,47,-100,-100,-100,0,0,100,0.00,40.00,0,-999,0,0.24
2013-10-19,59,48,34,-100,-100,-100,0,0,100,0.00,40.00,0,-999,0,0.01
2013-10-20,51,44,35,-100,-100,-100,0,0,100,0.00,40.00,0,-999,0,0.02
2013-10-21,60,44,32,-100,-100,-100,0,0,100,0.00,40.00,0,-999,0,0.02
2013-10-22,49,42,34,-100,-100,-100,0,0,100,0.00,40.00,0,-999,0,0.09
2013-10-23,45,37,30,-100,-100,-100,0,0,100,0.00,40.00,0,-999,0,0.02
2013-10-24,41,36,32,-100,-100,-100,0,0,100,0.00,40.00,0,-999,0,0.01
2013-10-25,40,36,32,-100,-100,-100,0,0,100,0.00,40.00,0,-999,0,0.01
2013-10-26,44,39,34,-100,-100,-100,0,0,100,0.00,40.00,0,-999,0,0.00
2013-10-27,42,38,31,-100,-100,-100,0,0,100,0.00,40.00,0,-999,0,0.00
2013-10-28,47,36,28,-100,-100,-100,0,0,100,0.00,40.00,0,-999,0,0.00
2013-10-29,40,29,18,-100,-100,-100,0,0,100,0.00,40.00,0,-999,0,0.00
2013-10-30,43,33,26,-100,-100,-100,0,0,100,0.00,40.00,0,-999,0,0.01
2013-10-31,57,43,28,-100,-100,-100,0,0,100,0.00,40.00,0,-999,0,0.27
2013-11-1,61,57,49,-100,-100,-100,0,0,100,0.00,40.00,0,-999,0,1.06
2013-11-2,56,44,34,-100,-100,-100,0,0,100,0.00,40.00,0,-999,0,0.02
2013-11-3,38,32,25,-100,-100,-100,0,0,100,0.00,40.00,0,-999,0,0.02
2013-11-4,37,27,18,-100,-100,-100,0,0,100,0.00,40.00,0,-999,0,0.00
2013-11-5,44,32,21,-100,-100,-100,0,0,100,0.00,40.00,0,-999,0,0.00
2013-11-6,52,43,32,-100,-100,-100,0,0,100,0.00,40.00,0,-999,0,0.00
2013-11-7,54,45,34,-100,-100,-100,0,0,100,0.00,40.00,0,-999,0,0.36
2013-11-8,34,32,30,-100,-100,-100,0,0,100,0.00,40.00,0,-999,0,0.02
2013-11-9,34,30,24,-100,-100,-100,0,0,100,0.00,40.00,0,-999,0,0.01
2013-11-10,43,36,29,-100,-100,-100,0,0,100,0.00,40.00,0,-999,0,0.07
2013-11-11,39,36,31,-100,-100,-100,0,0,100,0.00,40.00,0,-999,0,0.01
2013-11-12,37,26,21,-100,-100,-100,0,0,100,0.00,40.00,0,-999,0,0.01
2013-11-13,27,22,16,-100,-100,-100,0,0,100,0.00,40.00,0,-999,0,0.01
2013-11-14,41,32,26,-100,-100,-100,0,0,100,0.00,40.00,0,-999,0,0.00
2013-11-15,54,35,23,-100,-100,-100,0,0,100,0.00,40.00,0,-999,0,0.00
2013-11-16,53,37,29,-100,-100,-100,0,0,100,0.00,40.00,0,-999,0,0.00
2013-11-17,53,40,28,-100,-100,-100,0,0,100,0.00,40.00,0,-999,0,0.14
2013-11-18,55,49,37,-100,-100,-100,0,0,100,0.00,40.00,0,-999,0,0.53
2013-11-19,35,30,23,-100,-100,-100,0,0,100,0.00,40.00,0,-999,0,0.02
2013-11-20,34,24,17,-100,-100,-100,0,0,100,0.00,40.00,0,-999,0,0.01
2013-11-21,42,27,12,-100,-100,-100,0,0,100,0.00,40.00,0,-999,0,0.00
2013-11-22,42,37,33,-100,-100,-100,0,0,100,0.00,40.00,0,-999,0,0.12
2013-11-23,40,29,21,-100,-100,-100,0,0,100,0.00,40.00,0,-999,0,0.07
2013-11-24,19,13,7,-100,-100,-100,0,0,100,0.00,40.00,0,-999,0,0.04
2013-11-25,25,16,6,-100,-100,-100,0,0,100,0.00,40.00,0,-999,0,0.01
2013-11-26,30,26,21,-100,-100,-100,0,0,100,0.00,40.00,0,-999,0,0.21
2013-11-27,41,34,29,-100,-100,-100,0,0,100,0.00,40.00,0,-999,0,1.22
2013-11-28,28,18,11,-100,-100,-100,0,0,100,0.00,40.00,0,-999,0,0.06
2013-11-29,23,15,5,-100,-100,-100,0,0,100,0.00,40.00,0,-999,0,0.01
2013-11-30,23,18,1,-100,-100,-100,0,0,100,0.00,40.00,0,-999,0,0.00
2013-12-1,37,31,24,-100,-100,-100,0,0,100,0.00,40.00,0,-999,0,0.00
2013-12-2,37,32,29,-100,-100,-100,0,0,100,0.00,40.00,0,-999,0,0.00
2013-12-3,40,31,25,-100,-100,-100,0,0,100,0.00,40.00,0,-999,0,0.00
2013-12-4,45,31,25,-100,-100,-100,0,0,100,0.00,40.00,0,-999,0,0.00
2013-12-5,50,39,27,-100,-100,-100,0,0,100,0.00,40.00,0,-999,0,0.01
2013-12-6,48,37,30,-100,-100,-100,0,0,100,0.00,40.00,0,-999,0,0.11
2013-12-7,29,26,22,-100,-100,-100,0,0,100,0.00,40.00,0,-999,0,0.10
2013-12-8,23,22,19,-100,-100,-100,0,0,100,0.00,40.00,0,-999,0,0.00
2013-12-9,33,25,19,-100,-100,-100,0,0,100,0.00,40.00,0,-999,0,0.08
2013-12-10,31,24,17,-100,-100,-100,0,0,100,0.00,40.00,0,-999,0,0.05
2013-12-11,22,19,15,-100,-100,-100,0,0,100,0.00,40.00,0,-999,0,0.01
2013-12-12,17,12,8,-100,-100,-100,0,0,100,0.00,40.00,0,-999,0,0.01
2013-12-13,18,14,2,-100,-100,-100,0,0,100,0.00,40.00,0,-999,0,0.01
2013-12-14,12,5,2,-100,-100,-100,0,0,100,0.00,40.00,0,-999,0,0.00
2013-12-15,24,19,13,-100,-100,-100,0,0,100,0.00,40.00,0,-999,0,0.01
2013-12-16,19,13,7,-100,-100,-100,0,0,100,0.00,40.00,0,-999,0,0.01
2013-12-17,12,4,-11,-100,-100,-100,0,0,100,0.00,40.00,0,-999,0,0.00
2013-12-18,22,17,5,-100,-100,-100,0,0,100,0.00,40.00,0,-999,0,0.00
2013-12-19,36,29,21,-100,-100,-100,0,0,100,0.00,40.00,0,-999,0,0.00
2013-12-20,41,36,31,-100,-100,-100,0,0,100,0.00,40.00,0,-999,0,0.05
2013-12-21,50,42,37,-100,-100,-100,0,0,100,0.00,40.00,0,-999,0,0.42
2013-12-22,59,51,40,-100,-100,-100,0,0,100,0.00,40.00,0,-999,0,0.32
2013-12-23,45,40,30,-100,-100,-100,0,0,100,0.00,40.00,0,-999,0,0.12
2013-12-24,29,22,13,-100,-100,-100,0,0,100,0.00,40.00,0,-999,0,0.01
2013-12-25,20,12,4,-100,-100,-100,0,0,100,0.00,40.00,0,-999,0,0.00
2013-12-26,25,21,14,-100,-100,-100,0,0,100,0.00,40.00,0,-999,0,0.03
2013-12-27,26,23,19,-100,-100,-100,0,0,100,0.00,40.00,0,-999,0,0.01
2013-12-28,40,30,17,-100,-100,-100,0,0,100,0.00,40.00,0,-999,0,0.00
2013-12-29,43,31,27,-100,-100,-100,0,0,100,0.00,40.00,0,-999,0,0.01
2013-12-30,33,20,6,-100,-100,-100,0,0,100,0.00,40.00,0,-999,0,0.79
2013-12-31,17,10,-1,-100,-100,-100,0,0,100,0.00,40.00,0,-999,0,0.00
2014-1-1,14,10,7,-100,-100,-100,0,0,100,0.00,40.00,0,-999,0,0.00
2014-1-2,10,7,3,-100,-100,-100,0,0,100,0.00,40.00,0,-999,0,0.03